Time,TemperatureF,DewpointF,PressureIn,WindDirection,WindDirectionDegrees,WindSpeedMPH,WindSpeedGustMPH,Humidity,HourlyPrecipIn,Conditions,Clouds,dailyrainin,SoftwareType,DateUTC
2013-10-05 00:14:00,-999.0,-99.9,30.12,South,173,4.0,5.0,-999,-99.99,,,-99.99,,2013-10-05 04:14:00,
2013-10-05 00:24:00,-999.0,-99.9,30.12,South,176,5.0,5.0,-999,-99.99,,,-99.99,,2013-10-05 04:24:00,
2013-10-05 00:44:00,-999.0,-99.9,30.12,SSE,161,4.0,5.0,-999,-99.99,,,-99.99,,2013-10-05 04:44:00,
2013-10-05 00:54:00,-999.0,-99.9,30.12,South,174,4.0,6.0,-999,-99.99,,,-99.99,,2013-10-05 04:54:00,
2013-10-05 01:13:00,-999.0,-99.9,30.11,SSW,197,4.0,5.0,-999,-99.99,,,-99.99,,2013-10-05 05:13:00,
2013-10-05 02:32:00,-999.0,-99.9,30.11,SW,225,3.0,3.0,-999,-99.99,,,-99.99,,2013-10-05 06:32:00,
2013-10-05 02:52:00,74.0,-99.9,30.10,North,-999,-999.0,-999.0,-999,-99.99,,,-99.99,,2013-10-05 06:52:00,
2013-10-05 03:02:00,-999.0,-99.9,30.10,SW,224,2.0,2.0,-999,-99.99,,,-99.99,,2013-10-05 07:02:00,
2013-10-05 03:12:00,-999.0,-99.9,30.10,SSW,212,2.0,3.0,-999,-99.99,,,-99.99,,2013-10-05 07:12:00,
2013-10-05 03:32:00,-999.0,-99.9,30.09,WSW,254,2.0,2.0,-999,-99.99,,,-99.99,,2013-10-05 07:32:00,
2013-10-05 03:42:00,-999.0,-99.9,30.09,WSW,253,2.0,3.0,-999,-99.99,,,-99.99,,2013-10-05 07:42:00,
2013-10-05 04:02:00,-999.0,-99.9,30.09,NW,320,1.0,1.0,-999,-99.99,,,-99.99,,2013-10-05 08:02:00,
2013-10-05 04:12:00,-999.0,-99.9,30.09,NNW,327,1.0,2.0,-999,-99.99,,,-99.99,,2013-10-05 08:12:00,
2013-10-05 04:23:00,-999.0,-99.9,30.09,NNW,334,1.0,2.0,-999,-99.99,,,-99.99,,2013-10-05 08:23:00,
2013-10-05 04:32:00,-999.0,-99.9,30.09,NNW,343,2.0,2.0,-999,-99.99,,,-99.99,,2013-10-05 08:32:00,
2013-10-05 04:42:00,-999.0,-99.9,30.09,North,350,3.0,3.0,-999,-99.99,,,-99.99,,2013-10-05 08:42:00,
2013-10-05 04:52:00,-999.0,-99.9,30.09,North,350,3.0,3.0,-999,-99.99,,,-99.99,,2013-10-05 08:52:00,
2013-10-05 05:22:00,-999.0,-99.9,30.09,NNW,347,3.0,3.0,-999,-99.99,,,-99.99,,2013-10-05 09:22:00,
2013-10-05 05:33:00,-999.0,-99.9,30.09,North,354,2.0,2.0,-999,-99.99,,,-99.99,,2013-10-05 09:33:00,
2013-10-05 05:43:00,-999.0,-99.9,30.09,North,349,3.0,3.0,-999,-99.99,,,-99.99,,2013-10-05 09:43:00,
2013-10-05 05:54:00,71.0,-99.9,30.09,North,-999,-999.0,-999.0,-999,-99.99,,,-99.99,,2013-10-05 09:54:00,
2013-10-05 06:12:00,-999.0,-99.9,30.10,NNW,346,3.0,4.0,-999,-99.99,,,-99.99,,2013-10-05 10:12:00,
2013-10-05 06:23:00,-999.0,-99.9,30.10,NNW,348,2.0,2.0,-999,-99.99,,,-99.99,,2013-10-05 10:23:00,
2013-10-05 06:32:00,-999.0,-99.9,30.10,NNW,338,2.0,3.0,-999,-99.99,,,-99.99,,2013-10-05 10:32:00,
2013-10-05 06:43:00,-999.0,-99.9,30.10,NNW,333,2.0,3.0,-999,-99.99,,,-99.99,,2013-10-05 10:43:00,
2013-10-05 06:54:00,-999.0,-99.9,30.11,NNW,332,4.0,5.0,-999,-99.99,,,-99.99,,2013-10-05 10:54:00,
2013-10-05 07:12:00,-999.0,-99.9,30.11,NW,325,2.0,3.0,-999,-99.99,,,-99.99,,2013-10-05 11:12:00,
2013-10-05 07:22:00,-999.0,-99.9,30.12,NW,316,2.0,3.0,-999,-99.99,,,-99.99,,2013-10-05 11:22:00,
2013-10-05 07:33:00,-999.0,-99.9,30.12,NNW,327,2.0,4.0,-999,-99.99,,,-99.99,,2013-10-05 11:33:00,
2013-10-05 07:43:00,-999.0,-99.9,30.12,NNW,346,5.0,6.0,-999,-99.99,,,-99.99,,2013-10-05 11:43:00,
2013-10-05 08:02:00,-999.0,-99.9,30.12,North,350,5.0,6.0,-999,-99.99,,,-99.99,,2013-10-05 12:02:00,
2013-10-05 08:22:00,-999.0,-99.9,30.12,North,350,4.0,5.0,-999,-99.99,,,-99.99,,2013-10-05 12:22:00,
2013-10-05 08:32:00,-999.0,-99.9,30.12,North,350,5.0,6.0,-999,-99.99,,,-99.99,,2013-10-05 12:32:00,
2013-10-05 09:22:00,-999.0,-99.9,30.14,NNW,338,5.0,6.0,-999,-99.99,,,-99.99,,2013-10-05 13:22:00,
2013-10-05 09:52:00,-999.0,-99.9,30.14,NNW,348,3.0,5.0,-999,-99.99,,,-99.99,,2013-10-05 13:52:00,
2013-10-05 10:32:00,-999.0,-99.9,30.13,NNW,338,2.0,3.0,-999,-99.99,,,-99.99,,2013-10-05 14:32:00,
2013-10-05 10:52:00,-999.0,-99.9,30.13,NNE,26,2.0,3.0,-999,-99.99,,,-99.99,,2013-10-05 14:52:00,
2013-10-05 11:02:00,-999.0,-99.9,30.13,NNE,13,3.0,4.0,-999,-99.99,,,-99.99,,2013-10-05 15:02:00,
2013-10-05 11:22:00,77.0,-99.9,30.13,North,-999,-999.0,-999.0,-999,-99.99,,,-99.99,,2013-10-05 15:22:00,
2013-10-05 11:54:00,-999.0,-99.9,30.13,SSW,192,8.0,9.0,-999,-99.99,,,-99.99,,2013-10-05 15:54:00,
2013-10-05 12:04:00,-999.0,-99.9,30.13,SSW,195,6.0,7.0,-999,-99.99,,,-99.99,,2013-10-05 16:04:00,
2013-10-05 12:13:00,-999.0,-99.9,30.13,South,186,7.0,8.0,-999,-99.99,,,-99.99,,2013-10-05 16:13:00,
2013-10-05 12:33:00,-999.0,-99.9,30.13,South,179,7.0,9.0,-999,-99.99,,,-99.99,,2013-10-05 16:33:00,
2013-10-05 13:12:00,-999.0,-99.9,30.12,South,184,7.0,7.0,-999,-99.99,,,-99.99,,2013-10-05 17:12:00,
2013-10-05 13:22:00,-999.0,-99.9,30.11,South,186,7.0,8.0,-999,-99.99,,,-99.99,,2013-10-05 17:22:00,
2013-10-05 13:33:00,-999.0,-99.9,30.11,South,183,9.0,10.0,-999,-99.99,,,-99.99,,2013-10-05 17:33:00,
2013-10-05 13:42:00,-999.0,-99.9,30.11,South,181,10.0,12.0,-999,-99.99,,,-99.99,,2013-10-05 17:42:00,
2013-10-05 13:53:00,77.0,-99.9,30.10,North,-999,-999.0,-999.0,-999,-99.99,,,-99.99,,2013-10-05 17:53:00,
2013-10-05 14:12:00,-999.0,-99.9,30.10,South,182,9.0,10.0,-999,-99.99,,,-99.99,,2013-10-05 18:12:00,
2013-10-05 14:32:00,-999.0,-99.9,30.09,South,190,9.0,10.0,-999,-99.99,,,-99.99,,2013-10-05 18:32:00,
2013-10-05 14:42:00,-999.0,-99.9,30.09,South,185,9.0,10.0,-999,-99.99,,,-99.99,,2013-10-05 18:42:00,
2013-10-05 14:52:00,-999.0,-99.9,30.09,South,182,9.0,10.0,-999,-99.99,,,-99.99,,2013-10-05 18:52:00,
2013-10-05 15:11:00,-999.0,-99.9,30.09,South,188,9.0,11.0,-999,-99.99,,,-99.99,,2013-10-05 19:11:00,
2013-10-05 15:32:00,-999.0,-99.9,30.09,South,188,9.0,10.0,-999,-99.99,,,-99.99,,2013-10-05 19:32:00,
2013-10-05 16:02:00,-999.0,-99.9,30.09,South,187,8.0,9.0,-999,-99.99,,,-99.99,,2013-10-05 20:02:00,
2013-10-05 16:11:00,-999.0,-99.9,30.08,South,176,9.0,10.0,-999,-99.99,,,-99.99,,2013-10-05 20:11:00,
2013-10-05 16:32:00,-999.0,-99.9,30.08,South,185,8.0,10.0,-999,-99.99,,,-99.99,,2013-10-05 20:32:00,
2013-10-05 16:52:00,-999.0,-99.9,30.08,South,183,9.0,9.0,-999,-99.99,,,-99.99,,2013-10-05 20:52:00,
2013-10-05 17:22:00,-999.0,-99.9,30.08,South,179,8.0,9.0,-999,-99.99,,,-99.99,,2013-10-05 21:22:00,
2013-10-05 18:04:00,-999.0,-99.9,30.08,South,180,6.0,7.0,-999,-99.99,,,-99.99,,2013-10-05 22:04:00,
2013-10-05 18:13:00,-999.0,-99.9,30.08,South,180,6.0,7.0,-999,-99.99,,,-99.99,,2013-10-05 22:13:00,
2013-10-05 18:53:00,77.0,-99.9,30.08,North,-999,-999.0,-999.0,-999,-99.99,,,-99.99,,2013-10-05 22:53:00,
2013-10-05 19:13:00,-999.0,-99.9,30.08,South,170,5.0,6.0,-999,-99.99,,,-99.99,,2013-10-05 23:13:00,
2013-10-05 19:22:00,-999.0,-99.9,30.08,SSE,165,5.0,5.0,-999,-99.99,,,-99.99,,2013-10-05 23:22:00,
2013-10-05 19:34:00,-999.0,-99.9,30.08,South,169,4.0,5.0,-999,-99.99,,,-99.99,,2013-10-05 23:34:00,
2013-10-05 19:43:00,-999.0,-99.9,30.08,SSE,165,4.0,5.0,-999,-99.99,,,-99.99,,2013-10-05 23:43:00,
2013-10-05 20:32:00,-999.0,-99.9,30.09,SSE,163,4.0,4.0,-999,-99.99,,,-99.99,,2013-10-06 00:32:00,
2013-10-05 20:43:00,-999.0,-99.9,30.09,SSE,148,4.0,4.0,-999,-99.99,,,-99.99,,2013-10-06 00:43:00,
2013-10-05 20:52:00,-999.0,-99.9,30.09,SSE,153,4.0,4.0,-999,-99.99,,,-99.99,,2013-10-06 00:52:00,
2013-10-05 21:02:00,-999.0,-99.9,30.09,SSE,160,4.0,4.0,-999,-99.99,,,-99.99,,2013-10-06 01:02:00,
2013-10-05 21:11:00,-999.0,-99.9,30.09,SSE,160,4.0,5.0,-999,-99.99,,,-99.99,,2013-10-06 01:11:00,
2013-10-05 21:22:00,-999.0,-99.9,30.09,SSE,156,4.0,5.0,-999,-99.99,,,-99.99,,2013-10-06 01:22:00,
2013-10-05 21:52:00,-999.0,-99.9,30.10,SSE,147,4.0,4.0,-999,-99.99,,,-99.99,,2013-10-06 01:52:00,
2013-10-05 22:02:00,-999.0,-99.9,30.10,SSE,148,4.0,4.0,-999,-99.99,,,-99.99,,2013-10-06 02:02:00,
2013-10-05 22:42:00,-999.0,-99.9,30.10,SE,144,3.0,4.0,-999,-99.99,,,-99.99,,2013-10-06 02:42:00,
2013-10-05 22:53:00,-999.0,-99.9,30.10,SE,142,4.0,4.0,-999,-99.99,,,-99.99,,2013-10-06 02:53:00,
2013-10-05 23:22:00,75.0,-99.9,30.10,North,-999,-999.0,-999.0,-999,-99.99,,,-99.99,,2013-10-06 03:22:00,
2013-10-05 23:34:00,-999.0,-99.9,30.10,SSE,156,4.0,4.0,-999,-99.99,,,-99.99,,2013-10-06 03:34:00,
2013-10-05 23:45:00,-999.0,-99.9,30.09,SSE,156,4.0,5.0,-999,-99.99,,,-99.99,,2013-10-06 03:45:00,